TimeBST,TemperatureF,Dew PointF,Humidity,Sea Level PressureIn,VisibilityMPH,Wind Direction,Wind SpeedMPH,Gust SpeedMPH,PrecipitationIn,Events,Conditions,WindDirDegrees,DateUTC
6:50 AM,51.8,41.0,67,29.80,6.2,WNW,21.9,-,N/A,,Partly Cloudy,290,2012-10-12 05:50:00
7:20 AM,51.8,41.0,67,29.80,6.2,WNW,24.2,-,N/A,,Partly Cloudy,290,2012-10-12 06:20:00
7:50 AM,51.8,41.0,67,29.80,6.2,West,20.7,-,N/A,,Partly Cloudy,280,2012-10-12 06:50:00
8:20 AM,51.8,41.0,67,29.83,6.2,West,19.6,-,N/A,,Partly Cloudy,270,2012-10-12 07:20:00
8:50 AM,53.6,41.0,62,29.83,6.2,WNW,17.3,-,N/A,,Scattered Clouds,290,2012-10-12 07:50:00
9:20 AM,51.8,42.8,71,29.86,6.2,WSW,13.8,-,N/A,,Scattered Clouds,240,2012-10-12 08:20:00
9:50 AM,48.2,44.6,87,29.86,6.2,West,17.3,-,N/A,Rain,Light Rain Showers,260,2012-10-12 08:50:00
10:20 AM,50.0,46.4,87,29.86,6.2,WSW,16.1,-,N/A,,Partly Cloudy,250,2012-10-12 09:20:00
10:50 AM,53.6,50.0,88,29.86,6.2,West,20.7,-,N/A,,Scattered Clouds,260,2012-10-12 09:50:00
11:20 AM,55.4,48.2,77,29.86,6.2,West,25.3,-,N/A,,Scattered Clouds,260,2012-10-12 10:20:00
11:50 AM,55.4,42.8,63,29.86,6.2,West,20.7,34.5,N/A,,Scattered Clouds,260,2012-10-12 10:50:00
12:20 PM,55.4,44.6,67,29.86,6.2,West,19.6,32.2,N/A,,Scattered Clouds,270,2012-10-12 11:20:00
12:50 PM,55.4,44.6,67,29.86,6.2,West,20.7,-,N/A,,Scattered Clouds,260,2012-10-12 11:50:00
1:20 PM,55.4,42.8,63,29.86,6.2,West,23.0,-,N/A,,Scattered Clouds,270,2012-10-12 12:20:00
1:50 PM,57.2,44.6,63,29.86,6.2,West,20.7,-,N/A,,Scattered Clouds,260,2012-10-12 12:50:00
2:20 PM,55.4,42.8,63,29.86,6.2,West,19.6,-,N/A,,Scattered Clouds,270,2012-10-12 13:20:00
2:50 PM,55.4,44.6,67,29.86,6.2,West,21.9,-,N/A,,Scattered Clouds,260,2012-10-12 13:50:00
3:20 PM,55.4,44.6,67,29.86,6.2,West,18.4,-,N/A,,Scattered Clouds,270,2012-10-12 14:20:00
3:50 PM,55.4,44.6,67,29.89,6.2,West,24.2,-,N/A,,Scattered Clouds,260,2012-10-12 14:50:00
4:20 PM,55.4,44.6,67,29.89,6.2,West,19.6,-,N/A,,Scattered Clouds,260,2012-10-12 15:20:00
4:50 PM,55.4,44.6,67,29.89,6.2,WSW,18.4,-,N/A,,Scattered Clouds,250,2012-10-12 15:50:00
5:20 PM,55.4,44.6,67,29.86,6.2,WSW,17.3,-,N/A,,Scattered Clouds,240,2012-10-12 16:20:00
5:50 PM,55.4,42.8,63,29.86,6.2,SW,19.6,-,N/A,,Scattered Clouds,230,2012-10-12 16:50:00
6:20 PM,55.4,42.8,63,29.86,6.2,SW,21.9,-,N/A,,Scattered Clouds,230,2012-10-12 17:20:00
6:50 PM,53.6,44.6,72,29.86,6.2,SSW,21.9,35.7,N/A,Rain,Rain Showers,210,2012-10-12 17:50:00